Location: Arthez
(43.0833°N, 0.2500°W)
Time: 21:51:56
(UTC+00:00)

deb Kosmos-970 - Pass Details

Date: 24 August 2022
Orbit: 900 x 1112 km, 65.8° (Epoch: 28 September)

Event Time Altitude Azimuth Distance (km) Brightness Sun altitude
Rises 19:05:48 0° 319° (NW) 3,944 ? -3.7°
Reaches altitude 10° 19:11:18 10° 353° (N) 2,984 ? -4.6°
Maximum altitude 19:13:10 11° 9° (N) 2,900 ? -4.9°
Drops below altitude 10° 19:15:02 10° 25° (NNE) 2,971 ? -5.3°
Sets 19:20:27 0° 59° (ENE) 3,894 ? -6.2°
